This is the latest recevied weather packets stored in our database for station/object ON5MM-5. If no packets are shown the sender has not sent any weather packets the latest 10 day(s).
| Time | Temp. | Humidity | Pressure | Rain* | Wind** | Luminosity | Snow |
|---|---|---|---|---|---|---|---|
| 1777880402 | 16.67° C | 67% | 1015.7 hPa | 0 mm | 1.34 m/s, ° | - | - |
| 1777880102 | 16.11° C | 67% | 1015.7 hPa | 0 mm | 1.79 m/s, ° | - | - |
| 1777879803 | 16.11° C | 68% | 1015.7 hPa | 0 mm | 2.68 m/s, ° | - | - |
| 1777879503 | 16.11° C | 68% | 1015.7 hPa | 0 mm | 2.68 m/s, ° | - | - |
| 1777879203 | 16.11° C | 69% | 1015.7 hPa | 0 mm | 2.24 m/s, ° | - | - |
| 1777878903 | 16.11° C | 69% | 1015.7 hPa | 0 mm | 1.79 m/s, ° | - | - |
| 1777878603 | 15.56° C | 70% | 1015.7 hPa | 0 mm | 1.79 m/s, ° | - | - |
| 1777878302 | 15.56° C | 71% | 1015.6 hPa | 0 mm | 2.24 m/s, ° | - | - |
| 1777878002 | 15° C | 71% | 1015.6 hPa | 0 mm | 1.79 m/s, ° | - | - |
| 1777877702 | 15° C | 73% | 1015.5 hPa | 0 mm | 2.24 m/s, ° | - | - |
| 1777877403 | 15° C | 73% | 1015.6 hPa | 0 mm | 2.24 m/s, ° | - | - |
| 1777877103 | 14.44° C | 73% | 1015.5 hPa | 0 mm | 2.24 m/s, ° | - | - |
| 1777876803 | 14.44° C | 73% | 1015.5 hPa | 0 mm | 2.68 m/s, ° | - | - |
| 1777876502 | 14.44° C | 74% | 1015.4 hPa | 0 mm | 2.68 m/s, ° | - | - |
| 1777876202 | 14.44° C | 74% | 1015.4 hPa | 0 mm | 2.68 m/s, ° | - | - |
| 1777875902 | 14.44° C | 75% | 1015.4 hPa | 0 mm | 1.79 m/s, ° | - | - |
| 1777875602 | 13.89° C | 74% | 1015.4 hPa | 0 mm | 2.24 m/s, ° | - | - |
| 1777875302 | 13.89° C | 75% | 1015.3 hPa | 0 mm | 2.24 m/s, ° | - | - |
| 1777875002 | 13.33° C | 76% | 1015.3 hPa | 0 mm | 1.79 m/s, ° | - | - |
| 1777874702 | 13.33° C | 76% | 1015.3 hPa | 0 mm | 2.24 m/s, ° | - | - |
| 1777874401 | 13.33° C | 77% | 1015.3 hPa | 0 mm | 1.34 m/s, ° | - | - |
| 1777874103 | 13.33° C | 76% | 1015.2 hPa | 0 mm | 1.79 m/s, ° | - | - |
| 1777873802 | 13.33° C | 77% | 1015.2 hPa | 0 mm | 1.34 m/s, ° | - | - |
| 1777873502 | 12.78° C | 78% | 1015.2 hPa | 0 mm | 1.34 m/s, ° | - | - |
| 1777873202 | 12.22° C | 80% | 1015.2 hPa | 0 mm | 1.34 m/s, ° | - | - |
* Rain latest hour (hover to see other rain measurements)
** Current wind speed in m/s (hover to see current wind gust speed)